Vorticity
5 -6 3 7 9 10 7 -0 4 2 2 6 5 2 8 8 13 12 5 5 11 13 9 15 16 8 16 18 12 11 14 16 19 17 36 9 8 17 15 11 11 11 5
14 6 14 6 11 8 7 7 11 6 3 -0 2 -1 25 -0 11 6 8 21 12 8 14 8 8 13 14 16 16 15 11 21 24 7 9 -4 18 11 1 -11 6 4 13
17 -1 3 16 10 11 10 11 7 4 2 -7 8 8 13 -11 9 6 26 7 12 13 7 8 15 21 16 18 15 9 10 11 15 19 16 14 13 18 6 5 15 22 7
-4 22 11 1 8 11 6 3 0 -7 4 8 4 7 11 9 11 15 17 9 11 13 6 15 18 14 15 12 7 5 8 6 4 3 3 1 5 5 4 3 2 1 3
21 -3 5 -9 13 -4 -7 -6 -1 -8 15 -3 7 11 6 15 15 7 8 1 17 18 13 18 12 10 9 10 10 5 2 5 5 3 2 -0 1 2 6 3 5 1 7
-0 -1 23 -22 22 -4 -27 32 17 4 16 -8 9 12 3 4 6 4 8 9 19 14 20 13 10 10 9 7 7 6 5 9 1 3 -4 3 4 1 2 5 5 3 3
-33 -13 -3 7 -4 6 4 17 -2 -9 20 -3 13 7 19 13 9 4 8 17 19 18 15 11 11 10 9 10 2 7 12 1 -1 5 1 -4 -2 -5 -2 -2 2 -0 -3
4 23 14 7 20 -10 3 21 -21 23 -2 7 3 -13 9 11 -4 11 17 14 19 12 10 11 11 11 13 12 10 9 4 -3 0 4 6 5 8 10 11 8 8 16 26
-27 -3 -10 20 26 11 4 14 21 4 -1 21 11 14 -2 8 16 17 17 18 9 7 5 6 10 5 5 8 6 7 2 4 1 4 4 4 5 8 11 18 20 22 25
13 5 8 -2 5 10 11 -1 6 10 12 -12 21 21 4 22 12 14 16 13 9 12 14 12 5 3 7 2 0 3 4 5 5 6 7 5 11 25 32 32 26 22 18
29 18 31 32 15 26 58 13 1 -3 3 14 7 9 -4 -7 17 13 9 12 10 5 7 5 4 3 5 3 1 1 4 5 4 11 19 29 31 20 15 11 11 13 14
9 6 2 12 13 7 -0 5 -1 -4 17 -11 14 4 5 17 16 12 9 4 5 3 6 8 5 4 5 5 8 3 8 12 18 25 22 13 12 12 12 12 14 16 13
6 -8 -11 -3 14 22 7 5 19 9 0 11 8 16 11 11 6 7 9 5 -0 0 3 6 7 7 4 4 10 14 21 22 17 13 10 12 13 12 12 12 11 12 13
57 51 -9 32 23 12 2 8 9 10 13 18 9 8 9 17 13 7 1 2 4 6 5 4 6 10 14 18 18 16 13 10 10 9 9 11 10 9 8 9 11 11 12
-10 5 11 8 9 16 12 16 11 12 10 11 13 9 2 1 3 9 10 7 6 7 10 16 15 13 13 11 10 11 10 10 10 9 9 9 10 11 12 14 15 15 14
9 26 21 18 16 2 3 7 8 7 7 4 4 7 4 7 3 5 4 9 14 17 16 13 11 12 13 14 14 14 13 13 12 12 13 13 14 15 16 17 17 15 14
4 4 12 2 2 7 11 8 3 6 3 3 3 10 4 4 10 12 15 14 12 11 10 11 12 14 15 16 18 21 24 24 23 24 22 21 19 19 19 19 16 14 13
7 10 4 8 10 7 4 7 4 3 8 11 4 9 11 14 15 12 11 10 12 13 15 16 20 27 33 37 39 40 41 41 38 36 33 29 27 25 24 19 16 13 13
4 8 8 3 4 6 4 3 9 6 5 8 9 14 16 12 10 10 11 14 16 20 28 37 39 38 37 36 36 37 37 35 33 28 25 25 25 23 20 17 14 14 16
6 6 7 8 7 4 12 6 7 5 11 13 13 9 10 12 12 12 13 20 33 38 35 31 32 35 35 35 34 34 33 29 27 24 21 20 19 19 18 18 20 19 17
6 6 6 10 11 4 4 7 8 11 12 11 11 13 11 14 14 19 32 37 34 29 31 33 30 29 29 30 32 32 27 21 19 16 15 19 27 18 22 21 16 13 13
9 7 5 7 3 8 9 14 12 12 10 12 11 12 14 17 30 40 37 28 27 29 28 29 28 26 31 31 28 21 16 15 14 13 22 19 10 9 14 15 17 14 13
5 8 6 7 11 13 13 12 10 10 11 10 12 15 22 34 37 30 22 23 24 26 29 27 24 30 28 24 20 13 11 14 13 12 -1 26 12 6 13 23 17 12 15
5 7 14 13 13 12 10 9 10 10 10 13 15 25 34 33 28 21 20 23 23 26 27 23 24 25 23 16 13 12 12 12 12 6 8 13 17 9 12 18 11 12 14
11 15 13 11 11 9 9 10 10 10 12 15 24 31 30 27 20 20 21 22 22 25 25 21 21 22 20 13 14 12 13 11 7 10 11 6 16 9 15 21 17 13 7
12 12 9 8 9 10 9 9 9 12 15 21 26 28 25 23 19 20 21 20 22 23 23 21 20 19 15 6 12 13 12 12 11 10 8 19 5 15 12 20 13 12 9
Height
5734 5736 5736 5739 5740 5741 5741 5740 5739 5738 5736 5736 5734 5731 5728 5725 5721 5716 5710 5704 5698 5691 5685 5679 5673 5668 5662 5657 5651 5646 5644 5642 5639 5637 5637 5635 5633 5632 5631 5632 5633 5633 5632
5722 5724 5727 5728 5729 5730 5730 5728 5728 5727 5726 5725 5722 5719 5715 5712 5708 5703 5696 5690 5684 5678 5673 5667 5661 5654 5649 5644 5641 5638 5633 5630 5627 5626 5626 5626 5623 5621 5621 5622 5621 5621 5621
5709 5710 5715 5717 5718 5718 5718 5718 5717 5717 5715 5713 5711 5707 5703 5699 5694 5688 5681 5676 5670 5664 5660 5654 5649 5643 5638 5633 5630 5627 5625 5620 5617 5615 5615 5614 5613 5612 5611 5610 5609 5608 5607
5701 5694 5699 5703 5705 5705 5706 5705 5704 5703 5702 5701 5698 5694 5691 5685 5679 5673 5667 5662 5656 5650 5645 5640 5635 5631 5627 5624 5620 5617 5616 5613 5610 5608 5605 5603 5601 5599 5598 5598 5597 5595 5594
5687 5684 5689 5692 5693 5693 5691 5690 5691 5690 5690 5688 5685 5681 5676 5670 5664 5659 5654 5648 5640 5635 5630 5626 5622 5618 5615 5612 5609 5607 5604 5601 5599 5596 5593 5591 5589 5586 5584 5582 5581 5580 5579
5675 5679 5680 5679 5678 5676 5675 5677 5675 5677 5676 5674 5670 5667 5661 5655 5650 5645 5639 5633 5626 5620 5616 5612 5609 5605 5602 5599 5596 5594 5592 5589 5586 5583 5579 5576 5573 5570 5567 5564 5562 5561 5560
5667 5667 5667 5666 5666 5663 5664 5664 5663 5663 5661 5659 5655 5651 5645 5640 5635 5630 5624 5617 5611 5607 5603 5599 5595 5592 5589 5585 5582 5579 5576 5573 5570 5567 5563 5559 5554 5550 5547 5543 5538 5537 5534
5656 5655 5652 5654 5652 5653 5654 5652 5650 5649 5647 5645 5640 5636 5631 5626 5620 5614 5608 5602 5598 5594 5590 5586 5582 5578 5575 5573 5569 5565 5562 5558 5554 5549 5545 5540 5536 5531 5527 5522 5516 5511 5505
5643 5641 5643 5638 5638 5639 5638 5638 5637 5635 5633 5629 5625 5621 5618 5611 5605 5598 5592 5587 5582 5579 5576 5572 5569 5565 5561 5557 5554 5550 5545 5541 5537 5533 5527 5522 5516 5510 5505 5500 5495 5491 5486
5633 5633 5632 5631 5630 5627 5626 5626 5624 5621 5619 5615 5611 5608 5603 5596 5590 5585 5579 5574 5570 5565 5561 5556 5552 5549 5544 5540 5536 5531 5526 5520 5515 5508 5504 5499 5495 5490 5484 5479 5475 5472 5469
5625 5623 5620 5616 5616 5611 5612 5611 5611 5608 5606 5602 5598 5593 5589 5582 5575 5570 5565 5560 5556 5551 5547 5541 5535 5531 5526 5520 5515 5510 5504 5498 5491 5486 5481 5477 5472 5468 5465 5461 5459 5456 5454
5613 5608 5607 5606 5604 5602 5602 5600 5598 5595 5592 5587 5582 5578 5573 5566 5559 5554 5549 5544 5539 5535 5529 5523 5516 5509 5503 5497 5492 5486 5481 5475 5470 5465 5461 5456 5453 5451 5448 5445 5442 5441 5438
5603 5599 5597 5595 5593 5592 5591 5589 5586 5582 5577 5572 5568 5562 5556 5549 5543 5538 5532 5526 5519 5513 5507 5500 5494 5487 5480 5474 5467 5462 5456 5451 5447 5443 5440 5437 5435 5432 5430 5428 5427 5425 5424
5589 5585 5584 5584 5584 5582 5579 5578 5572 5566 5562 5559 5554 5548 5539 5532 5526 5521 5513 5506 5498 5490 5481 5474 5466 5458 5452 5446 5439 5434 5430 5426 5424 5421 5419 5417 5416 5414 5413 5412 5411 5410 5409
5581 5581 5579 5577 5573 5570 5567 5563 5560 5556 5551 5545 5538 5530 5523 5515 5508 5501 5493 5484 5476 5468 5459 5448 5439 5431 5424 5416 5411 5407 5402 5399 5397 5396 5395 5394 5394 5395 5395 5395 5395 5395 5394
5576 5574 5571 5567 5563 5558 5555 5551 5546 5542 5536 5527 5520 5512 5503 5496 5488 5478 5468 5458 5448 5439 5430 5421 5412 5402 5394 5387 5382 5377 5372 5370 5368 5368 5368 5370 5372 5374 5376 5378 5379 5380 5380
5565 5563 5559 5555 5551 5548 5543 5538 5532 5524 5516 5509 5500 5492 5484 5475 5465 5455 5444 5431 5418 5409 5398 5387 5378 5369 5361 5353 5347 5342 5340 5337 5338 5340 5343 5346 5350 5354 5358 5361 5364 5365 5366
5555 5551 5549 5548 5543 5537 5532 5526 5518 5511 5502 5493 5484 5475 5464 5453 5441 5429 5417 5403 5390 5374 5363 5353 5343 5334 5326 5318 5312 5308 5307 5308 5310 5314 5319 5325 5330 5336 5341 5345 5349 5352 5354
5547 5544 5541 5536 5530 5525 5519 5513 5506 5497 5489 5478 5467 5454 5441 5427 5414 5401 5388 5375 5362 5348 5334 5321 5310 5302 5296 5290 5287 5286 5286 5289 5293 5298 5304 5310 5316 5322 5327 5332 5337 5341 5344
5538 5534 5529 5524 5520 5515 5507 5499 5490 5482 5472 5461 5449 5436 5422 5408 5393 5377 5361 5346 5331 5317 5306 5296 5288 5281 5277 5273 5271 5272 5274 5279 5285 5291 5296 5301 5306 5311 5316 5322 5327 5332 5336
5527 5524 5522 5518 5509 5502 5495 5486 5477 5466 5454 5442 5429 5416 5402 5387 5370 5353 5336 5321 5309 5299 5288 5280 5273 5268 5265 5263 5263 5266 5269 5275 5281 5287 5292 5296 5301 5306 5311 5316 5320 5325 5330
5521 5517 5511 5506 5499 5492 5483 5473 5463 5451 5437 5424 5410 5396 5379 5362 5345 5329 5315 5304 5294 5285 5277 5270 5265 5261 5259 5259 5261 5264 5269 5274 5280 5286 5290 5294 5299 5304 5308 5312 5316 5321 5326
5513 5509 5503 5496 5490 5482 5471 5459 5447 5434 5422 5408 5392 5375 5358 5342 5327 5315 5304 5293 5284 5276 5269 5264 5260 5258 5257 5258 5261 5265 5270 5275 5281 5286 5290 5294 5298 5303 5306 5310 5314 5319 5324
5507 5501 5495 5488 5480 5469 5457 5445 5433 5421 5408 5392 5375 5358 5342 5328 5316 5305 5295 5285 5277 5270 5265 5261 5259 5258 5258 5260 5264 5267 5271 5276 5281 5286 5291 5295 5298 5302 5306 5309 5314 5319 5323
5500 5494 5486 5478 5468 5456 5445 5435 5423 5409 5394 5378 5361 5345 5330 5318 5308 5298 5289 5281 5273 5267 5262 5260 5258 5258 5260 5262 5266 5269 5273 5277 5282 5287 5291 5295 5299 5302 5306 5309 5314 5319 5323
5492 5485 5476 5466 5455 5446 5437 5426 5413 5398 5383 5366 5350 5336 5324 5313 5303 5294 5285 5277 5270 5265 5261 5259 5258 5259 5261 5264 5267 5271 5274 5278 5282 5287 5292 5296 5300 5303 5307 5310 5314 5319 5324